sat.trackr.live / text

‹ back to catalog

STARLINK-30430

NORAD 57849 · 2023-141K

PAYLOAD ACTIVE UNKNOWN

§ Identity

Operator
Country
US
Launch date
2023-09-12
Launch site
AFWTR
Launch vehicle
Mass (kg)
RCS (m²)

Purposes: comms

External: N2YO · Heavens-Above · Gunter

§ Orbital elements

Epoch: 2026-09-20T20:08:21.230304Z

Period
94.01 min
Inclination
53.1564°
Eccentricity
0.0001294
Mean motion
15.31726546 rev/d
Perigee alt
469.8 km
Apogee alt
471.5 km
Semi-major
6,848.8 km
B*
-1.2606e-4
RAAN
96.4422°
Arg perigee
88.8035°
Mean anomaly
271.3115°
Rev number
17,022

§ Raw data

STARLINK-304301 57849U 23141K   26263.83913461 -.00004278  00000+0 -12606-3 0  99982 57849  53.1564  96.4422 0001294  88.8035 271.3115 15.31726546170226

JSON: /api/v1/satellites/57849 · /tle

For live sub-satellite position, see the globe view (requires WebGL).

§ Visibility from observer

Set your observer location to see the next 7 days of passes ≥ 10°. The values pass through the URL so the page stays shareable.

No JS? Fill the form by hand. The geolocation button needs JavaScript.